Voltar ao catálogo

STARLINK-4771

AtivoComunicaçõesVLEO
NORAD 53833·PAYLOAD·🇺🇸 United States

Lançado Sep 19, 2022 de Cape Canaveral Space Force Station

Loading…

Próximas Passagens (próximas 24 horas)

TLE

AtualizadoSource: CelesTrak SupGP

Época: Sep 15, 2026, 02:58 UTC

1 53833C 22114R   26258.12409722  .00030812  00000+0  19330-2 0  2581
2 53833  53.1589 172.9621 0001672  86.1134 189.1264 15.08805485    18

Acompanhe STARLINK-4771 em tempo real com AllMySat

Download on the App Store